Previsão horária em Plop-Stiubei

Hoje, 24 Fevereiro, Quarta-feira

Tempo Temperatura Precipitação Vento Pressão Humidade
00:00 +2°C° 0 mm 3 m/s 763 mmHg 92%
01:00 +1°C° 0 mm 3 m/s 763 mmHg 92%
02:00 0°C° 0 mm 4 m/s 763 mmHg 87%
03:00 0°C° 0.1 mm 3 m/s 764 mmHg 88%
04:00 0°C° 0.1 mm 3 m/s 764 mmHg 88%
05:00 0°C° 0.1 mm 3 m/s 764 mmHg 88%
06:00 0°C° 0 mm 3 m/s 764 mmHg 88%
07:00 +1°C° 0 mm 2 m/s 764 mmHg 88%
08:00 +1°C° 0 mm 2 m/s 764 mmHg 89%
09:00 +1°C° 0 mm 2 m/s 764 mmHg 87%
10:00 +2°C° 0 mm 2 m/s 764 mmHg 85%
11:00 +2°C° 0 mm 2 m/s 764 mmHg 83%
12:00 +3°C° 0 mm 2 m/s 764 mmHg 82%
13:00 +2°C° 0 mm 3 m/s 763 mmHg 81%
14:00 +2°C° 0 mm 3 m/s 763 mmHg 80%
15:00 +2°C° 0 mm 3 m/s 763 mmHg 81%
16:00 +2°C° 0 mm 3 m/s 763 mmHg 81%
17:00 +2°C° 0 mm 3 m/s 763 mmHg 81%
18:00 +2°C° 0 mm 3 m/s 763 mmHg 82%
19:00 +1°C° 0 mm 3 m/s 762 mmHg 84%
20:00 +1°C° 0 mm 3 m/s 762 mmHg 86%
21:00 +1°C° 0 mm 3 m/s 762 mmHg 86%
22:00 +1°C° 0 mm 3 m/s 763 mmHg 86%
23:00 +1°C° 0 mm 3 m/s 763 mmHg 86%

Amanhã, 25 Fevereiro, Quinta-feira

Tempo Temperatura Precipitação Vento Pressão Humidade
00:00 +1°C° 0 mm 3 m/s 763 mmHg 87%
01:00 +2°C° 0 mm 2 m/s 763 mmHg 87%
02:00 +2°C° 0 mm 2 m/s 763 mmHg 88%
03:00 +2°C° 0 mm 2 m/s 763 mmHg 89%
04:00 +2°C° 0 mm 2 m/s 762 mmHg 90%
05:00 +3°C° 0 mm 2 m/s 762 mmHg 91%
06:00 +3°C° 0 mm 2 m/s 762 mmHg 92%
07:00 +4°C° 0 mm 1 m/s 762 mmHg 93%
08:00 +4°C° 0 mm 1 m/s 762 mmHg 93%
09:00 +5°C° 0 mm 1 m/s 762 mmHg 90%
10:00 +5°C° 0 mm 2 m/s 762 mmHg 86%
11:00 +6°C° 0 mm 2 m/s 762 mmHg 82%
12:00 +6°C° 0 mm 2 m/s 762 mmHg 82%
13:00 +7°C° 0 mm 2 m/s 762 mmHg 81%
14:00 +7°C° 0 mm 2 m/s 762 mmHg 81%
15:00 +7°C° 0 mm 2 m/s 761 mmHg 82%
16:00 +7°C° 0 mm 2 m/s 761 mmHg 83%
17:00 +8°C° 0 mm 1 m/s 760 mmHg 84%
18:00 +8°C° 0 mm 1 m/s 761 mmHg 85%
19:00 +7°C° 0 mm 1 m/s 761 mmHg 87%
20:00 +7°C° 0 mm 1 m/s 761 mmHg 88%
21:00 +7°C° 0 mm 1 m/s 761 mmHg 89%
22:00 +6°C° 0 mm 1 m/s 760 mmHg 89%
23:00 +6°C° 0 mm 1 m/s 760 mmHg 89%

Depois de amanhã, 26 Fevereiro, Sexta-feira

Tempo Temperatura Precipitação Vento Pressão Humidade
00:00 +6°C° 0 mm 1 m/s 760 mmHg 90%
01:00 +6°C° 0 mm 1 m/s 760 mmHg 90%
02:00 +5°C° 0 mm 1 m/s 760 mmHg 90%
03:00 +5°C° 0 mm 1 m/s 759 mmHg 91%
04:00 +5°C° 0 mm 1 m/s 759 mmHg 91%
05:00 +5°C° 0 mm 1 m/s 758 mmHg 91%
06:00 +4°C° 0 mm 2 m/s 758 mmHg 92%
07:00 +4°C° 0 mm 2 m/s 758 mmHg 93%
08:00 +4°C° 0 mm 2 m/s 758 mmHg 93%
09:00 +5°C° 0 mm 3 m/s 758 mmHg 86%
10:00 +8°C° 0 mm 3 m/s 758 mmHg 80%
11:00 +10°C° 0 mm 4 m/s 758 mmHg 73%
12:00 +11°C° 0 mm 4 m/s 757 mmHg 69%
13:00 +13°C° 0 mm 4 m/s 757 mmHg 65%
14:00 +14°C° 0 mm 4 m/s 757 mmHg 61%
15:00 +14°C° 0 mm 3 m/s 756 mmHg 63%
16:00 +13°C° 0 mm 3 m/s 755 mmHg 65%
17:00 +14°C° 0 mm 2 m/s 755 mmHg 67%
18:00 +13°C° 0 mm 2 m/s 755 mmHg 71%
19:00 +12°C° 0 mm 2 m/s 755 mmHg 75%
20:00 +10°C° 0 mm 2 m/s 754 mmHg 79%
21:00 +9°C° 0 mm 2 m/s 754 mmHg 80%
22:00 +8°C° 0 mm 2 m/s 754 mmHg 81%
23:00 +8°C° 0 mm 2 m/s 754 mmHg 83%

27 Fevereiro, Sábado

Tempo Temperatura Precipitação Vento Pressão Humidade
00:00 +8°C° 0 mm 1 m/s 754 mmHg 83%
01:00 +8°C° 0 mm 1 m/s 753 mmHg 83%
02:00 +8°C° 0 mm 1 m/s 753 mmHg 83%
03:00 +7°C° 0 mm 1 m/s 753 mmHg 84%
04:00 +7°C° 0 mm 1 m/s 752 mmHg 85%
05:00 +5°C° 0 mm 2 m/s 752 mmHg 86%
06:00 +5°C° 0 mm 2 m/s 752 mmHg 87%
07:00 +7°C° 0 mm 1 m/s 752 mmHg 87%
08:00 +7°C° 0 mm 1 m/s 752 mmHg 88%
09:00 +7°C° 0 mm 2 m/s 752 mmHg 84%
10:00 +9°C° 0 mm 3 m/s 752 mmHg 79%
11:00 +10°C° 0 mm 4 m/s 752 mmHg 75%
12:00 +8°C° 0 mm 5 m/s 752 mmHg 76%
13:00 +7°C° 0 mm 5 m/s 752 mmHg 77%
14:00 +6°C° 0 mm 5 m/s 752 mmHg 77%
15:00 +6°C° 0 mm 5 m/s 752 mmHg 73%
16:00 +6°C° 0 mm 5 m/s 752 mmHg 69%
17:00 +6°C° 0 mm 5 m/s 752 mmHg 65%
18:00 +6°C° 0 mm 5 m/s 752 mmHg 67%
19:00 +4°C° 0 mm 6 m/s 753 mmHg 69%
20:00 +3°C° 0 mm 6 m/s 753 mmHg 71%
21:00 +2°C° 0 mm 6 m/s 753 mmHg 73%
22:00 +2°C° 0 mm 5 m/s 753 mmHg 74%
23:00 +1°C° 0 mm 5 m/s 754 mmHg 76%

28 Fevereiro, Domingo

Tempo Temperatura Precipitação Vento Pressão Humidade
00:00 +1°C° 0 mm 5 m/s 754 mmHg 78%
01:00 +1°C° 0 mm 6 m/s 754 mmHg 81%
02:00 +1°C° 0 mm 6 m/s 754 mmHg 83%
03:00 +1°C° 0.1 mm 6 m/s 754 mmHg 85%
04:00 +1°C° 0.1 mm 6 m/s 754 mmHg 88%
05:00 -1°C° 0.1 mm 6 m/s 754 mmHg 90%
06:00 +1°C° 0 mm 6 m/s 754 mmHg 88%
07:00 0°C° 0 mm 7 m/s 755 mmHg 86%
08:00 0°C° 0 mm 7 m/s 755 mmHg 85%
09:00 0°C° 0 mm 7 m/s 756 mmHg 82%
10:00 0°C° 0 mm 7 m/s 756 mmHg 80%
11:00 0°C° 0 mm 7 m/s 756 mmHg 78%
12:00 +2°C° 0 mm 7 m/s 756 mmHg 73%
13:00 +2°C° 0 mm 7 m/s 756 mmHg 67%
14:00 +1°C° 0 mm 8 m/s 757 mmHg 62%
15:00 +2°C° 0 mm 7 m/s 757 mmHg 62%
16:00 +2°C° 0 mm 7 m/s 757 mmHg 61%
17:00 0°C° 0 mm 7 m/s 756 mmHg 61%
18:00 +1°C° 0 mm 6 m/s 757 mmHg 64%
19:00 0°C° 0 mm 5 m/s 757 mmHg 67%
20:00 +1°C° 0 mm 3 m/s 758 mmHg 70%
21:00 0°C° 0 mm 4 m/s 758 mmHg 71%
22:00 -1°C° 0 mm 4 m/s 758 mmHg 73%
23:00 -1°C° 0 mm 4 m/s 759 mmHg 74%

1 Março, Segunda-feira

Tempo Temperatura Precipitação Vento Pressão Humidade
00:00 0°C° 0 mm 3 m/s 759 mmHg 76%
01:00 0°C° 0 mm 3 m/s 759 mmHg 77%
02:00 0°C° 0 mm 3 m/s 759 mmHg 79%
03:00 -1°C° 0 mm 3 m/s 759 mmHg 80%
04:00 -1°C° 0 mm 3 m/s 759 mmHg 82%
05:00 -1°C° 0 mm 3 m/s 759 mmHg 83%
06:00 -2°C° 0 mm 4 m/s 760 mmHg 84%
07:00 -2°C° 0 mm 4 m/s 760 mmHg 86%
08:00 -1°C° 0 mm 5 m/s 760 mmHg 87%
09:00 0°C° 0 mm 5 m/s 760 mmHg 81%
10:00 +1°C° 0 mm 5 m/s 761 mmHg 75%
11:00 +2°C° 0 mm 5 m/s 761 mmHg 69%
12:00 +2°C° 0 mm 5 m/s 762 mmHg 68%
13:00 +2°C° 0 mm 5 m/s 762 mmHg 68%
14:00 +2°C° 0 mm 5 m/s 762 mmHg 68%
15:00 +2°C° 0 mm 5 m/s 762 mmHg 68%
16:00 +3°C° 0 mm 4 m/s 763 mmHg 68%
17:00 +3°C° 0 mm 4 m/s 763 mmHg 68%
18:00 +3°C° 0 mm 4 m/s 763 mmHg 73%
19:00 +2°C° 0 mm 3 m/s 764 mmHg 78%
20:00 +2°C° 0 mm 3 m/s 764 mmHg 83%
21:00 +1°C° 0 mm 3 m/s 764 mmHg 83%
22:00 +2°C° 0 mm 2 m/s 765 mmHg 84%
23:00 +2°C° 0 mm 2 m/s 765 mmHg 85%
Mostrar mais

Necessitamos do seu Consentimento

A Meteoprog e os seus Fornecedores de Serviços podem armazenar e aceder a dados pessoais como cookies, identificadores do dispositivo ou outras tecnologias semelhantes existentes no seu dispositivo e processar estes dados para personalizar conteúdos e anúncios, assim como funcionalidades nas redes sociais e análise de tráfego.

  • Armazenar e/ou aceder a informações no seu dispositivo

    Os cookies, identificadores do dispositivo ou outras informações podem ser armazenados ou acedidos no seu dispositivo, para os fins acima indicados.

  • Anúncios e conteúdos personalizados, medição de anúncios e conteúdos, dados sobre o público-alvo e desenvolvimento de produtos

    Os anúncios e os conteúdos podem ser personalizados com base num perfil. Podem ser adicionados dados adicionais para uma maior personalização dos anúncios e dos conteúdos. A eficácia dos anúncios e dos conteúdos pode ser medida. Podem ser obtidas informações sobre o público que visualizou os anúncios e os conteúdos. Estes dados podem ser usados para desenvolver ou melhorar sistemas, softwares ou a experiência do utilizador.

Ao clicar em "Eu concordo”, permitirá o uso de cookies, identificadores do dispositivo e web beacons mencionados ou outras tecnologias semelhantes. As configurações do navegador do seu dispositivo podem ser alteradas.

Para certos fins, podem ser invocados interesses legítimos ao invés de consentimento. Pode ler mais informação sobre este assunto na nossa Política de Privacidade e Cookies.